Terminal Aerodrome Forecast
Issued by NWS Key West, FL

Home | Current Version | Previous Version | Text Only | Print | Product List | Glossary On
Versions: 1 2 3 4 5 6 7 8 9 10 11 12 13 14 15 16 17 18 19 20 21 22 23 24 25 26 27 28 29 30 31 32 33 34 35 36 37 38 39
000
FTUS42 KKEY 211100
TAFEYW
TAF
KEYW 211135Z 2112/2212 09005KT P6SM FEW025
     FM211600 09006KT P6SM VCSH SCT025 SCT100
     FM220200 10007KT P6SM FEW028=

USA.gov is the U.S. government's official web portal to all federal, state and local government web resources and services.